x

9444090 - Port Angeles, Wa (ptaw1) Weather Station

4:36 - Wed 29th Jun 2016 All times are PDT. -7 hours from GMT.

  • Wind
    6mph, 9mph gusts
  • Sea Temp 53°f
  • Luft Temp 55°f
  • Sea Pressure 1021.8mb
  • 9444090 - Port Angeles, Wa
  • 9444090 - Port Angeles, Wa

More Historic Weather Station data

Upgrade to MSW Pro to gain access to the past 30 days of data for over 8000 Wavebouys and Weather Stations around the globe.

Join Pro

Comparision Forecast

View Surf forecast
   
Mi 06/29 4:36 6 9 mph 1021.8mb 53f 55f
4:30 6 10 mph 1021.7mb 53f 55f
4:24 5 9 mph 1021.7mb 53f 55f
4:18 5 8 mph 1021.7mb 53f 55f
4:12 6 9 mph 1021.7mb 53f 55f
4:06 3 7 mph 1021.7mb 53f 55f
4:00 6 8 mph 1021.7mb 53f 55f
3:36 6 10 mph 1021.7mb 53f 55f
3:30 7 11 mph 1021.7mb 53f 55f
3:24 7 11 mph 1021.7mb 53f 55f
3:18 6 14 mph 1021.7mb 53f 55f
3:12 8 11 mph 1021.7mb 53f 55f
3:06 9 14 mph 1021.7mb 53f 55f
3:00 8 14 mph 1021.6mb 53f 55f
2:36 6 13 mph 1021.6mb 53f 55f
2:30 8 13 mph 1021.5mb 53f 55f
2:24 8 11 mph 1021.5mb 53f 55f
2:18 6 10 mph 1021.5mb 53f 55f
2:12 7 10 mph 1021.4mb 53f 55f
2:06 6 10 mph 1021.5mb 53f 55f
2:00 7 10 mph 1021.5mb 53f 56f
1:36 7 10 mph 1021.4mb 53f 56f
1:30 6 10 mph 1021.4mb 53f 56f
1:24 10 15 mph 1021.4mb 53f 56f
1:18 9 15 mph 1021.4mb 53f 56f
1:12 10 17 mph 1021.3mb 53f 56f
1:06 14 16 mph 1021.3mb 53f 56f
1:00 15 21 mph 1021.2mb 53f 56f
12:36 10 16 mph 1021.2mb 53f 56f
12:30 14 17 mph 1021.2mb 53f 56f
12:24 14 17 mph 1021.2mb 53f 56f
12:18 13 17 mph 1021.2mb 53f 56f
12:12 13 18 mph 1021.2mb 53f 56f
12:06 11 16 mph 1021.1mb 53f 56f
12:00 11 14 mph 1021.1mb 53f 56f
Di 06/28 11:36 11 17 mph 1021mb 53f 56f
11:30 13 17 mph 1021mb 53f 56f
11:24 13 17 mph 1020.9mb 53f 56f
11:18 15 18 mph 1021mb 53f 56f
11:12 15 23 mph 1021mb 53f 56f
11:06 14 21 mph 1021mb 53f 56f
11:00 14 20 mph 1021mb 53f 56f
10:36 13 17 mph 1021mb 53f 56f
10:30 14 17 mph 1021mb 53f 56f
10:24 14 20 mph 1021mb 53f 56f
10:18 13 16 mph 1020.9mb 53f 56f
10:12 14 21 mph 1020.9mb 53f 56f
10:06 13 17 mph 1020.9mb 53f 56f
10:00 13 16 mph 1021mb 53f 55f
9:36 16 21 mph 1020.7mb 53f 55f
9:30 16 20 mph 1020.6mb 53f 55f
9:24 17 21 mph 1020.5mb 53f 55f
9:18 15 20 mph 1020.5mb 53f 55f
9:12 14 21 mph 1020.4mb 53f 55f
9:06 16 21 mph 1020.4mb 53f 55f
9:00 15 20 mph 1020.4mb 53f 55f
8:36 15 21 mph 1020.3mb 53f 55f
8:30 18 22 mph 1020.3mb 53f 56f
8:24 16 20 mph 1020.3mb 53f 56f
8:18 16 21 mph 1020.3mb 53f 56f
8:12 15 18 mph 1020.2mb 53f 57f
8:06 16 18 mph 1020.1mb 53f 57f
8:00 16 20 mph 1020.1mb 53f 57f
7:36 16 18 mph 1020.1mb 53f 58f
7:30 15 22 mph 1020.1mb 53f 58f
7:24 16 20 mph 1020.1mb 53f 57f
7:18 17 21 mph 1020.1mb 53f 57f
7:12 17 20 mph 1020.1mb 53f 57f
7:06 16 20 mph 1020.1mb 53f 57f
7:00 17 23 mph 1020.1mb 53f 56f
6:36  -  mph 1020mb 53f 57f
6:30  -  mph 1020mb 53f 57f
6:24  -  mph 1020mb 53f 58f
6:18  -  mph 1020.1mb 53f 57f
6:12  -  mph 1020.1mb 53f 58f
6:06  -  mph 1020.1mb 53f 58f
6:00  -  mph 1020.2mb 53f 57f
5:36 18 21 mph 1020.3mb 53f 58f
5:30 18 21 mph 1020.4mb 53f 58f
5:24 17 21 mph 1020.4mb 53f 58f
5:18 18 21 mph 1020.4mb 53f 58f
5:12 16 21 mph 1020.5mb 53f 58f
5:06 17 20 mph 1020.6mb 53f 58f
5:00 17 20 mph 1020.7mb 53f 58f
4:36  -  mph 1021mb 53f 58f
4:30  -  mph 1021mb 53f 57f
4:24  -  mph 1021.1mb 53f 58f
4:18  -  mph 1021.2mb 53f 58f
4:12  -  mph 1021.1mb 53f 57f
4:06  -  mph 1021.2mb 53f 57f
4:00  -  mph 1021.3mb 53f 57f
3:36  -  mph 1021.4mb - 57f
3:30  -  mph 1021.4mb - 57f
3:24  -  mph 1021.5mb - 57f
3:18  -  mph 1021.6mb - 57f
3:12  -  mph 1021.6mb - 56f
3:06  -  mph 1021.7mb - 56f
3:00  -  mph 1021.7mb - 56f
2:36 20 24 mph 1021.8mb 52f 56f
2:30 21 23 mph 1021.8mb 52f 56f
2:24 20 24 mph 1021.9mb 52f 56f
2:18 20 23 mph 1021.9mb 52f 56f
2:12 18 23 mph 1022mb 52f 56f
2:06 17 22 mph 1021.9mb 52f 56f
2:00 16 22 mph 1022mb 52f 56f
1:36 17 21 mph 1022.1mb 52f 55f
1:30 16 21 mph 1022.2mb 52f 55f
1:24 14 21 mph 1022.3mb 52f 55f
1:18 17 22 mph 1022.3mb 52f 55f
1:12 17 22 mph 1022.4mb 52f 55f
1:06 17 21 mph 1022.4mb 52f 55f
1:00 18 22 mph 1022.4mb 52f 55f
12:36 17 22 mph 1022.5mb 52f 55f
12:30 18 22 mph 1022.5mb 52f 55f
12:24 17 21 mph 1022.5mb 52f 55f
12:18 17 22 mph 1022.5mb 52f 55f
12:12 16 21 mph 1022.6mb 52f 55f
12:06 16 21 mph 1022.6mb 52f 55f
12:00 16 21 mph 1022.7mb 52f 55f
11:36 16 21 mph 1022.8mb 52f 54f
11:30 17 21 mph 1022.9mb 52f 54f
11:24 16 20 mph 1022.9mb 52f 54f
11:18 18 22 mph 1022.9mb 52f 54f
11:12 16 21 mph 1022.9mb 53f 54f
11:06 15 20 mph 1022.9mb 53f 55f
11:00 16 21 mph 1022.9mb 53f 54f
10:36 16 20 mph 1022.9mb 53f 54f
10:30 17 21 mph 1023mb 53f 55f
10:24 15 20 mph 1023mb 52f 54f
10:18 14 18 mph 1023mb 52f 55f
10:12 14 18 mph 1023.1mb 52f 55f
10:06 15 18 mph 1023.1mb 52f 55f
10:00 15 20 mph 1023.1mb 52f 54f
9:36 14 17 mph 1023.3mb 52f 55f
9:30 14 17 mph 1023.3mb 52f 55f
9:24 14 17 mph 1023.3mb 52f 55f
9:18 13 17 mph 1023.3mb 52f 55f
9:12 14 17 mph 1023.2mb 52f 55f
9:06 15 18 mph 1023.3mb 52f 55f
9:00 15 18 mph 1023.3mb 52f 55f
8:36 14 15 mph 1023.2mb 52f 55f
8:30 13 14 mph 1023.2mb 52f 55f
8:24 13 16 mph 1023.2mb 52f 55f
8:18 13 14 mph 1023.2mb 52f 55f
8:12 11 14 mph 1023.2mb 52f 55f
8:06 13 14 mph 1023.2mb 52f 55f
8:00 10 13 mph 1023.2mb 52f 55f
7:36 7 13 mph 1023.1mb 52f 55f
7:30 7 9 mph 1023.1mb 52f 56f
7:24 7 10 mph 1023.1mb 52f 55f
7:18 7 14 mph 1023mb 52f 55f
7:12 10 14 mph 1023mb 52f 55f
7:06 8 11 mph 1023.1mb 52f 55f
7:00 6 10 mph 1023mb 52f 55f
6:36 6 9 mph 1023mb 52f 55f
6:30 7 9 mph 1023mb 52f 55f
6:24 6 8 mph 1022.9mb 52f 55f
6:18 6 10 mph 1022.8mb 52f 55f
6:12 6 8 mph 1022.8mb 52f 55f
6:06 5 8 mph 1022.7mb 52f 55f
6:00 7 10 mph 1022.7mb 52f 55f
5:36 5 11 mph 1022.5mb 52f 55f
5:30 9 14 mph 1022.5mb 52f 55f
5:24 9 13 mph 1022.5mb 53f 55f
5:18 8 13 mph 1022.4mb 53f 55f
5:12 8 13 mph 1022.4mb 53f 55f
5:06 8 11 mph 1022.4mb 53f 55f
5:00 7 11 mph 1022.4mb 53f 55f
4:54 6 10 mph 1022.4mb 53f 55f
4:48 7 13 mph 1022.4mb 53f 55f
4:36 9 13 mph 1022.3mb 53f 55f
4:30 7 10 mph 1022.3mb 53f 55f
4:24 8 13 mph 1022.2mb 53f 55f
4:18 5 10 mph 1022.2mb 53f 55f
4:12 7 14 mph 1022.3mb 53f 55f
4:06 6 10 mph 1022.2mb 53f 55f
4:00 5 10 mph 1022.2mb 53f 55f
3:54 6 9 mph 1022.1mb 53f 55f
3:48 7 10 mph 1022.1mb 53f 55f
3:36 6 10 mph 1022mb 53f 55f
3:30 7 10 mph 1021.9mb 53f 55f
3:24 8 13 mph 1021.9mb 53f 55f
3:18 8 10 mph 1021.9mb 52f 55f
3:12 6 8 mph 1021.8mb 52f 55f
3:06 6 10 mph 1021.9mb 52f 55f
3:00 9 13 mph 1021.8mb 52f 55f
2:54 8 13 mph 1021.7mb 52f 55f
2:48 9 13 mph 1021.7mb 52f 55f
2:36 7 11 mph 1021.7mb 52f 55f
2:30 8 13 mph 1021.7mb 52f 55f
2:24 7 14 mph 1021.6mb 51f 55f
2:18 10 15 mph 1021.7mb 52f 55f
2:12 13 16 mph 1021.6mb 52f 55f
2:06 11 18 mph 1021.6mb 52f 55f
2:00 11 16 mph 1021.6mb 52f 55f
1:54 13 17 mph 1021.6mb 52f 55f
1:48 13 18 mph 1021.6mb 52f 55f
1:36 14 17 mph 1021.6mb 52f 55f
1:30 14 18 mph 1021.6mb 52f 55f
1:24 11 16 mph 1021.6mb 52f 56f
1:18 11 16 mph 1021.6mb 52f 56f
1:12 11 17 mph 1021.6mb 52f 56f
1:06 9 13 mph 1021.6mb 52f 56f
1:00 9 14 mph 1021.7mb 52f 56f
12:54 11 17 mph 1021.7mb 52f 56f
12:48 11 16 mph 1021.7mb 52f 56f
12:36 10 16 mph 1021.7mb 52f 56f
12:30 13 17 mph 1021.7mb 52f 56f
12:24 14 20 mph 1021.6mb 52f 56f
12:18 14 18 mph 1021.7mb 52f 56f
12:12 16 21 mph 1021.7mb 52f 56f
12:06 16 22 mph 1021.7mb 52f 56f
12:00 14 21 mph 1021.7mb 53f 56f
Mo 06/27 11:54 16 20 mph 1021.7mb 53f 56f
11:48 14 18 mph 1021.7mb 53f 56f
11:36 14 20 mph 1021.7mb 53f 56f
11:30 14 18 mph 1021.7mb 53f 56f
11:24 13 18 mph 1021.7mb 53f 56f
11:18 13 18 mph 1021.7mb 52f 56f
11:12 11 16 mph 1021.6mb 52f 56f
11:06 15 20 mph 1021.6mb 52f 56f
11:00 15 20 mph 1021.6mb 52f 56f
10:54 14 17 mph 1021.7mb 52f 56f
10:48 14 20 mph 1021.7mb 52f 56f
10:36 13 18 mph 1021.7mb 52f 56f
10:30 11 16 mph 1021.7mb 52f 56f
10:24 13 17 mph 1021.7mb 52f 56f
10:18 10 16 mph 1021.7mb 52f 56f
10:12 13 20 mph 1021.7mb 52f 56f
10:06 13 16 mph 1021.6mb 52f 56f
10:00 13 16 mph 1021.5mb 52f 56f
9:54 10 17 mph 1021.5mb 53f 56f
9:48 14 18 mph 1021.4mb 53f 56f
9:36 13 18 mph 1021.3mb 53f 56f
9:30 14 17 mph 1021.2mb 53f 55f
9:24 14 20 mph 1021.2mb 53f 56f
9:18 16 20 mph 1021.1mb 53f 56f
9:12 16 20 mph 1021.1mb 53f 56f
9:06 15 17 mph 1021mb 53f 56f
9:00 15 20 mph 1020.9mb 53f 55f
8:54 15 20 mph 1020.8mb 53f 56f
8:48 17 21 mph 1020.7mb 53f 56f
8:36 16 20 mph 1020.7mb 53f 56f
8:30 16 21 mph 1020.7mb 53f 56f
8:24 15 20 mph 1020.8mb 53f 56f
8:18 18 22 mph 1020.7mb 53f 56f
8:12 16 22 mph 1020.8mb 53f 56f
8:06 18 23 mph 1020.7mb 53f 56f
8:00 18 23 mph 1020.6mb 53f 57f
7:54 15 22 mph 1020.6mb 53f 57f
7:48 17 23 mph 1020.5mb 53f 57f
7:36 20 24 mph 1020.4mb 53f 58f
7:30 20 25 mph 1020.4mb 53f 57f
7:24 20 23 mph 1020.4mb 53f 57f
7:18 21 28 mph 1020.3mb 53f 58f
7:12 20 26 mph 1020.2mb 53f 58f
7:06 20 25 mph 1020.2mb 53f 58f
7:00 21 28 mph 1020.3mb 53f 58f
6:54 22 28 mph 1020.3mb 53f 58f
6:48 20 25 mph 1020.2mb 53f 57f
6:36 23 26 mph 1020.1mb 53f 58f
6:30 23 25 mph 1020mb 53f 58f
6:24 21 25 mph 1020mb 53f 59f
6:18 20 23 mph 1020mb 53f 59f
6:12 21 23 mph 1020.1mb 53f 58f
6:06 17 21 mph 1020.1mb 53f 59f
6:00 17 21 mph 1020.2mb 53f 60f
5:54 15 20 mph 1020.2mb 53f 59f
5:48 15 20 mph 1020.3mb 53f 59f
5:36 17 20 mph 1020.4mb 53f 59f
5:30 16 21 mph 1020.5mb 53f 60f
5:24 17 23 mph 1020.6mb 53f 59f
5:18 21 23 mph 1020.6mb 53f 60f
5:12 21 23 mph 1020.5mb 53f 59f
5:06 20 22 mph 1020.5mb 53f 59f
5:00 21 23 mph 1020.5mb 53f 58f
4:54 21 23 mph 1020.6mb 53f 58f
4:48 20 25 mph 1020.6mb 53f 58f
4:36  -  mph 1020.6mb 53f 59f
4:30  -  mph 1020.6mb 53f 58f
4:24  -  mph 1020.7mb 53f 59f
4:18  -  mph 1020.7mb 53f 60f
4:12  -  mph 1020.7mb 53f 60f
4:06  -  mph 1020.7mb 53f 60f
4:00  -  mph 1020.7mb 53f 60f
3:54  -  mph 1020.7mb 53f 60f
3:48  -  mph 1020.7mb 53f 60f
3:36  -  mph 1020.7mb 53f 58f
3:30  -  mph 1020.8mb 54f 58f
3:24  -  mph 1020.8mb 54f 59f
3:18  -  mph 1020.9mb 54f 60f
3:12  -  mph 1020.9mb 54f 61f
3:06  -  mph 1021mb 54f 60f
3:00  -  mph 1021mb 54f 58f
2:54  -  mph 1021mb 54f 58f
2:48  -  mph 1021mb 54f 58f
2:36 17 22 mph 1021mb 54f 58f
2:30 17 21 mph 1021.1mb 54f 58f
2:24 17 21 mph 1021.1mb 54f 58f
2:18 17 20 mph 1021.1mb 54f 57f
2:12 17 21 mph 1021.1mb 54f 57f
2:06 18 21 mph 1021.2mb 54f 57f
2:00 15 20 mph 1021.3mb 53f 57f
1:54 18 22 mph 1021.2mb 53f 57f
1:48 17 21 mph 1021.3mb 53f 57f
1:36 18 22 mph 1021.3mb 53f 56f
1:30 18 23 mph 1021.3mb 53f 56f
1:24 17 22 mph 1021.4mb 53f 57f
1:18 18 22 mph 1021.4mb 53f 56f
1:12 17 21 mph 1021.4mb 53f 56f
1:06 17 20 mph 1021.4mb 53f 57f
1:00 17 20 mph 1021.4mb 53f 57f
12:54 16 18 mph 1021.4mb 53f 57f
12:48 16 20 mph 1021.3mb 53f 56f
12:36 17 21 mph 1021.4mb 53f 57f
12:30 16 18 mph 1021.4mb 53f 57f
12:24 16 20 mph 1021.4mb 53f 57f
12:18 15 18 mph 1021.4mb 53f 56f
12:12 16 17 mph 1021.4mb 52f 56f
12:06 14 17 mph 1021.4mb 52f 56f
12:00 15 17 mph 1021.4mb 51f 56f
11:54 15 16 mph 1021.4mb 51f 56f
11:48 15 17 mph 1021.3mb 51f 56f
11:36 15 16 mph 1021.3mb 51f 56f
11:30 15 16 mph 1021.2mb 51f 56f
11:24 13 16 mph 1021.3mb 51f 56f
11:18 15 16 mph 1021.3mb 51f 56f
11:12 14 16 mph 1021.4mb 51f 56f
11:06 14 16 mph 1021.5mb 51f 55f
11:00 14 16 mph 1021.5mb 51f 55f
10:54 14 15 mph 1021.5mb 52f 56f
10:48 13 15 mph 1021.6mb 52f 55f
10:36 13 15 mph 1021.6mb 51f 55f
10:30 14 15 mph 1021.6mb 51f 55f
10:24 14 15 mph 1021.6mb 51f 55f
10:18 13 14 mph 1021.6mb 52f 55f
10:12 13 14 mph 1021.6mb 52f 55f
10:06 14 15 mph 1021.5mb 52f 55f
10:00 14 15 mph 1021.5mb 52f 55f
9:54 10 14 mph 1021.5mb 52f 55f
9:48 10 16 mph 1021.5mb 52f 55f
9:36 15 16 mph 1021.5mb 52f 54f
9:30 15 17 mph 1021.5mb 52f 55f
9:24 15 16 mph 1021.5mb 52f 54f
9:18 15 16 mph 1021.5mb 52f 54f
9:12 14 16 mph 1021.5mb 52f 54f
9:06 14 15 mph 1021.5mb 52f 54f
9:00 14
mph
1021.4mb 52f 54f
8:54 13 15 mph 1021.4mb 52f 54f
8:48 14 15 mph 1021.4mb 52f 54f
8:36 11 15 mph 1021.4mb 52f 55f
8:30 10 14 mph 1021.3mb 51f 54f
8:24 9 13 mph 1021.3mb 51f 54f
8:18 11 13 mph 1021.2mb 51f 54f
8:12 9 15 mph 1021.2mb 51f 54f
8:06 13 15 mph 1021.2mb 51f 55f
8:00 10 14 mph 1021.1mb 51f 55f
7:54 10 13 mph 1021.1mb 51f 55f
7:48 7 10 mph 1021.1mb 51f 55f
7:36 8 11 mph 1021.1mb 52f 56f
7:30 9 11 mph 1021.1mb 52f 57f
7:24 8 10 mph 1021.1mb 52f 58f
7:18 7 8 mph 1021.1mb 52f 58f
7:12 6 8 mph 1021.1mb 52f 57f
7:06 6 7 mph 1021.1mb 52f 57f
7:00 3 6 mph 1021.1mb 52f 56f
6:54 1 3 mph 1021.2mb 52f 56f
6:48  -  2 mph 1021.2mb 52f 57f
6:36  -  2 mph 1021.1mb 51f 56f
6:30 1 2 mph 1021mb 51f 56f
6:24 2 3 mph 1021mb 51f 55f
6:18 2 3 mph 1020.9mb 51f 55f
6:12 3 5 mph 1020.9mb 51f 54f
6:06 3 5 mph 1020.8mb 51f 54f
6:00 3 5 mph 1020.8mb 51f 53f
5:54 3 5 mph 1020.7mb 51f 53f
5:48 3 5 mph 1020.7mb 51f 53f
5:36 2 3 mph 1020.6mb 51f 53f
5:30 2 3 mph 1020.6mb 51f 53f
5:24 2 3 mph 1020.5mb 51f 53f
5:18 3 5 mph 1020.5mb 51f 53f
5:12 5
mph
1020.4mb 51f 53f
5:06 3 5 mph 1020.5mb 51f 53f
5:00 2 5 mph 1020.4mb 51f 54f
4:54 3 5 mph 1020.4mb 51f 54f
4:48 2 5 mph 1020.4mb 51f 54f
4:36 5 6 mph 1020.4mb 51f 53f
4:30 3
mph
1020.3mb 51f 53f
4:24 2
mph
1020.3mb 51f 54f
4:18 1 2 mph 1020.2mb 51f 53f
4:12 1 3 mph 1020.2mb 51f 53f
4:06 2 3 mph 1020.2mb 51f 54f
4:00 2
mph
1020.1mb 51f 54f
3:54 3 5 mph 1020.1mb 51f 54f
3:48 3 5 mph 1020.1mb 51f 54f
3:36 5 6 mph 1020.1mb 52f 54f
3:30 5
mph
1020.2mb 52f 54f
3:24 5 6 mph 1020.3mb 52f 54f
3:18 3
mph
1020.3mb 52f 54f
3:12 3
mph
1020.3mb 52f 54f
3:06 1 2 mph 1020.3mb 52f 55f
3:00 1 2 mph 1020.3mb 52f 55f
2:54 1 2 mph 1020.3mb 52f 55f
2:48 2
mph
1020.3mb 52f 55f
2:36 3
mph
1020.3mb 52f 55f
2:30 3 5 mph 1020.3mb 52f 55f
2:24 3
mph
1020.3mb 52f 55f
2:18 1 2 mph 1020.3mb 52f 55f
2:12 2 3 mph 1020.3mb 52f 56f
2:06 3 5 mph 1020.3mb 51f 56f
2:00 1 3 mph 1020.2mb 51f 56f
1:54 2 3 mph 1020.2mb 51f 57f
1:48 2 3 mph 1020.3mb 51f 56f
1:36 3 5 mph 1020.2mb 52f 56f
1:30 2 3 mph 1020.2mb 52f 56f
1:24 3
mph
1020.2mb 52f 56f
1:18 3 5 mph 1020.1mb 52f 57f
1:12 3 5 mph 1020.1mb 52f 57f
1:06 3 5 mph 1020.2mb 52f 57f
1:00 3 5 mph 1020.2mb 52f 57f
12:54 3
mph
1020.2mb 52f 57f
12:48 2 3 mph 1020.3mb 52f 58f
12:36 2 3 mph 1020.3mb 52f 58f
12:30 2 3 mph 1020.3mb 52f 58f
12:24 2 3 mph 1020.4mb 52f 58f
12:18 2 5 mph 1020.3mb 52f 59f
12:12 3 5 mph 1020.3mb 52f 59f
12:06 1 5 mph 1020.3mb 52f 59f
12:00 3 5 mph 1020.3mb 52f 59f
So 06/26 11:54 5 6 mph 1020.3mb 52f 58f
11:48 3 6 mph 1020.3mb 52f 58f
11:36 2 3 mph 1020.3mb 52f 59f
11:30 2 3 mph 1020.3mb 52f 58f
11:24 2 3 mph 1020.3mb 52f 58f
11:18 2 5 mph 1020.3mb 52f 58f
11:12 5 6 mph 1020.3mb 52f 58f
11:06 6 8 mph 1020.3mb 52f 57f
11:00 7 8 mph 1020.3mb 52f 57f
10:54 8 10 mph 1020.3mb 52f 57f
10:48 8 10 mph 1020.3mb 52f 58f
10:36 8 13 mph 1020.3mb 52f 58f
10:30 10 13 mph 1020.4mb 52f 58f
10:24 7 9 mph 1020.4mb 52f 58f
10:18 3 6 mph 1020.5mb 52f 59f
10:12 3 6 mph 1020.5mb 52f 60f
10:06 2 5 mph 1020.5mb 52f 60f
10:00 2 5 mph 1020.5mb 52f 59f
9:54 3 5 mph 1020.5mb 52f 59f
9:48 3 6 mph 1020.5mb 52f 59f
9:36 3 7 mph 1020.5mb 52f 59f
9:30 6 8 mph 1020.6mb 52f 59f
9:24 7 9 mph 1020.6mb 52f 60f
9:18 6 10 mph 1020.6mb 52f 60f
9:12 9 11 mph 1020.6mb 53f 61f
9:06 9 13 mph 1020.6mb 53f 65f
9:00 9 13 mph 1020.6mb 53f 64f
8:54 8 11 mph 1020.6mb 54f 65f
8:48 9 14 mph 1020.6mb 54f 64f
8:36 8 10 mph 1020.7mb 54f 62f
8:30 9 10 mph 1020.7mb 54f 62f
8:24 7 10 mph 1020.7mb 54f 62f
8:18 10 13 mph 1020.8mb 54f 62f
8:12 10 11 mph 1020.8mb 53f 61f
8:06 10 13 mph 1020.8mb 52f 60f
8:00 11 14 mph 1020.8mb 52f 60f
7:54 14
mph
1020.7mb 52f 60f
7:48 14 15 mph 1020.8mb 52f 60f
7:36 15 17 mph 1020.7mb 52f 60f
7:30 15 16 mph 1020.8mb 52f 60f
7:24 15 17 mph 1020.8mb 52f 60f
7:18 15 17 mph 1020.8mb 52f 60f
7:12 15 16 mph 1020.8mb 52f 60f
7:06 15 17 mph 1020.8mb 52f 60f
7:00 15 16 mph 1020.7mb 51f 60f
6:54 14 16 mph 1020.8mb 51f 60f
6:48 15 16 mph 1020.8mb 51f 59f
6:36 17 18 mph - 51f 58f
6:30 15 18 mph - 51f 58f
6:24 16 18 mph - 51f 59f
6:18 17 20 mph - 51f 59f
6:12 16 20 mph - 51f 61f
6:06 15 17 mph - 51f 62f
6:00 13 15 mph - 51f 62f
5:54 6 11 mph - 51f 69f
5:48 1 2 mph - 51f 73f
5:36  -  mph 1021.1mb 51f 71f
5:30  -  mph 1021mb 51f 69f
5:24  -  mph 1021mb 51f 70f
5:18  -  mph 1021.1mb 51f 69f
5:12  -  mph 1021.1mb 51f 69f
5:06  -  mph 1021.2mb 51f 69f
5:00  -  mph 1021.2mb 51f 69f
4:36  -  mph - 51f 69f
4:30  -  mph - 51f 68f
4:24  -  mph - 51f 66f
4:18  -  mph - 51f 67f
4:12  -  mph - 51f 65f
4:06  -  mph - 51f 65f
4:00  -  mph - 51f 65f
3:54  -  mph - 52f 66f
3:48  -  mph - 52f 68f
3:36 5
mph
1021.9mb 52f 67f
3:30 5
mph
1021.9mb 52f 68f
3:24 5 6 mph 1022mb 52f 67f
3:18 6
mph
1022mb 52f 67f
3:12 6 7 mph 1022.1mb 51f 68f
3:06 6
mph
1022.2mb 51f 66f
3:00 6
mph
1022.3mb 51f 66f
2:54 5 6 mph 1022.3mb 51f 66f
2:48 6
mph
1022.4mb 51f 65f
2:36 5 6 mph 1022.5mb 51f 66f
2:30 5 6 mph 1022.6mb 51f 66f
2:24 6
mph
1022.6mb 51f 66f
2:18 6
mph
1022.7mb 51f 65f
2:12 6
mph
1022.7mb 51f 65f
2:06 6
mph
1022.7mb 51f 67f
2:00 5 6 mph 1022.7mb 51f 66f
1:54 5 6 mph 1022.8mb 51f 67f
1:48 5 6 mph 1022.9mb 51f 66f
1:36 5
mph
1023mb 51f 63f
1:30 5 6 mph 1023mb 51f 64f
1:24 6
mph
1023mb 51f 67f
1:18 5 6 mph 1023.1mb 51f 65f
1:12 5
mph
1023.1mb 51f 65f
1:06 5 6 mph 1023.2mb 51f 65f
1:00 6
mph
1023.3mb 51f 66f
12:54 5
mph
1023.3mb 51f 65f
12:48 5
mph
1023.4mb 51f 65f
12:36 5
mph
1023.4mb 51f 65f
12:30 5
mph
1023.5mb 51f 63f
12:24 5
mph
1023.6mb 51f 64f
12:18 3 5 mph 1023.6mb 51f 64f
12:12 3
mph
1023.6mb 51f 65f
12:06 3
mph
1023.6mb 51f 65f
12:00 3
mph
1023.7mb 51f 65f
11:54 3 5 mph 1023.7mb 51f 64f
11:48 3 5 mph 1023.8mb 51f 64f
11:36 3
mph
1023.9mb 51f 65f
11:30 3
mph
1023.9mb 51f 65f
11:24 5
mph
1023.9mb 51f 64f
11:18 5
mph
1024mb 51f 63f
11:12 5 6 mph 1024mb 51f 64f
11:06 6 7 mph 1024mb 51f 64f
11:00 7
mph
1024.1mb 51f 63f
10:54 7
mph
1024.1mb 51f 62f
10:48 7 8 mph 1024.2mb 51f 62f
10:36 8 9 mph 1024.4mb 51f 63f
10:30 9 10 mph 1024.4mb 51f 63f
10:24 10 11 mph 1024.4mb 51f 62f
10:18 9 10 mph 1024.4mb 51f 62f
10:12 8 9 mph 1024.4mb 51f 63f
10:06 8 10 mph 1024.5mb 51f 62f
10:00 10 11 mph 1024.5mb 51f 62f
9:54 9 10 mph 1024.5mb 51f 62f
9:48 8 9 mph 1024.5mb 51f 62f
9:36 7
mph
1024.6mb 51f 59f
9:30 7
mph
1024.6mb 51f 59f
9:24 6 7 mph 1024.6mb 51f 59f
9:18 6
mph
1024.5mb 51f 58f
9:12 5
mph
1024.5mb 51f 58f
9:06 3 5 mph 1024.5mb 51f 58f
9:00 3
mph
1024.5mb 51f 58f
8:54 3 5 mph 1024.5mb 51f 57f
8:48 3 5 mph 1024.4mb 51f 57f
8:36 2 3 mph 1024.4mb 51f 56f
8:30 5 6 mph 1024.4mb 51f 55f
8:24 3 5 mph 1024.4mb 51f 56f
8:18 1 2 mph 1024.4mb 51f 56f
8:12 1 2 mph 1024.4mb 51f 56f
8:06 1 3 mph 1024.4mb 51f 56f
8:00 2 3 mph 1024.3mb 51f 56f
7:54 1 3 mph 1024.2mb 51f 55f
7:48 2 5 mph 1024.2mb 51f 54f
7:36 3 5 mph 1024.1mb 51f 55f
7:30 3 5 mph 1024mb 51f 54f
7:24 2 5 mph 1024mb 51f 54f
7:18 2 5 mph 1023.9mb 51f 55f
7:12 1 5 mph 1023.8mb 51f 54f
7:06 2 5 mph 1023.8mb 51f 54f
7:00 2 6 mph 1023.8mb 51f 54f
6:54 3 7 mph 1023.8mb 51f 54f
6:48 1 2 mph 1023.7mb 51f 56f
6:36  -  1 mph 1023.7mb 51f 55f
6:30 2 6 mph 1023.7mb 51f 55f
6:24 2 5 mph 1023.8mb 51f 53f
6:18 2 5 mph 1023.8mb 51f 55f
6:12 1 5 mph 1023.8mb 51f 55f
6:06 5 8 mph 1023.8mb 51f 54f
6:00 6 8 mph 1023.8mb 51f 54f
5:54 2 5 mph 1023.8mb 51f 53f
5:48 3 6 mph 1023.8mb 51f 52f
5:36 5 7 mph 1023.9mb 51f 51f
5:30 6 7 mph 1023.9mb 51f 51f
5:24 5 6 mph 1024mb 51f 51f
5:18 5 6 mph 1024mb 51f 51f
5:12 2 6 mph 1024mb 51f 51f
5:06 3 5 mph 1023.9mb 51f 50f
5:00 3 5 mph 1023.9mb 51f 50f
4:54 3
mph
1023.9mb 51f 50f
4:48 3
mph
1024mb 51f 50f
4:36 2 3 mph 1024mb 51f 51f
4:30 1 2 mph 1024mb 51f 50f
4:24  -  2 mph 1024mb 51f 51f
4:18 2 3 mph 1024mb 51f 51f
4:12 2 3 mph 1024.1mb 51f 51f
4:06 2
mph
1024mb 51f 51f
4:00  -  1 mph 1023.9mb 51f 51f
3:54  -  3 mph 1023.9mb 51f 52f
3:48 2 3 mph 1023.9mb 51f 52f
3:36 2 3 mph 1023.8mb 51f 52f
3:30 5 6 mph 1023.8mb 51f 52f
3:24 5 6 mph 1023.8mb 51f 52f
3:18 5
mph
1023.9mb 51f 52f
3:12 5 6 mph 1023.9mb 51f 52f
3:06 5 6 mph 1024mb 51f 52f
3:00 6
mph
1024mb 51f 53f
2:54 5 6 mph 1023.9mb 51f 52f
2:48 3 6 mph 1024mb 51f 53f
2:36 6 7 mph 1024.1mb 51f 53f
2:30 2 3 mph 1024mb 51f 53f
2:24 3 5 mph 1024.1mb 51f 53f
2:18 2 3 mph 1024.1mb 51f 53f
2:12 3 6 mph 1024.1mb 51f 53f
2:06 5
mph
1024.1mb 51f 53f
2:00 5 6 mph 1024.1mb 51f 53f
1:54 3
mph
1024.2mb 51f 53f
1:48 3 5 mph 1024.2mb 51f 53f
1:36 1 2 mph 1024.2mb 51f 54f
1:30 1 3 mph 1024.1mb 51f 54f
1:24 1 2 mph 1024.1mb 51f 54f
1:18 2 5 mph 1024.1mb 51f 54f
1:12 3 5 mph 1024.1mb 51f 54f
1:06 2 3 mph 1024.1mb 51f 55f
1:00 3 6 mph 1024.1mb 51f 55f
12:54 3 6 mph 1024.1mb 51f 55f
12:48 1 2 mph 1024.2mb 51f 55f
12:36 3 5 mph 1024.1mb 52f 54f
12:30 3 5 mph 1024.1mb 52f 54f
12:24 1 3 mph 1024.1mb 52f 54f
12:18 2 3 mph 1024.1mb 52f 55f
12:12 3 5 mph 1024.1mb 52f 55f
12:06 3
mph
1024.1mb 52f 55f
12:00 3 5 mph 1024.1mb 52f 55f
Sa 06/25 11:54 3 5 mph 1024.1mb 52f 55f
11:48 3
mph
1024.2mb 52f 56f
11:36 3 5 mph 1024.2mb 52f 56f
11:30 3 5 mph 1024.2mb 52f 56f
11:24 3 5 mph 1024.2mb 52f 56f
11:18 3 6 mph 1024.3mb 51f 57f
11:12 3 5 mph 1024.3mb 51f 57f
11:06 3 6 mph 1024.3mb 51f 57f
11:00 2 6 mph 1024.3mb 51f 57f
10:54 2 3 mph 1024.3mb 51f 57f
10:48 2 6 mph 1024.3mb 51f 57f
10:36 2 6 mph 1024.3mb 51f 57f
10:30 5 7 mph 1024.3mb 51f 57f
10:24 8 11 mph 1024.3mb 51f 57f
10:18 7 11 mph 1024.2mb 51f 57f
10:12 7 9 mph 1024.2mb 51f 57f
10:06 8 10 mph 1024.2mb 51f 56f
10:00 8 10 mph 1024.2mb 51f 57f
9:54 7 11 mph 1024.2mb 51f 57f
9:48 9 11 mph 1024.2mb 51f 58f
9:36 8 11 mph 1024.2mb 51f 58f
9:30 8 11 mph 1024.1mb 51f 58f
9:24 7 10 mph 1024.1mb 51f 58f
9:18 7 9 mph 1024.1mb 51f 59f
9:12 7 11 mph 1024.1mb 51f 59f
9:06 6 10 mph 1024mb 51f 59f
9:00 7 10 mph 1024mb 51f 59f
8:54 9 13 mph 1024mb 51f 59f
8:48 7 11 mph 1024mb 51f 59f
8:36 10 14 mph 1024mb 51f 58f
8:30 14 16 mph 1024mb 51f 58f
8:24 14 16 mph 1024.1mb 51f 58f
8:18 13 17 mph 1024.1mb 51f 57f
8:12 13 17 mph 1024mb 51f 58f
8:06 13 16 mph 1024mb 52f 58f
8:00 13 17 mph 1024mb 52f 57f
7:54 15 17 mph 1024.1mb 52f 57f
7:48 13 16 mph 1024mb 52f 57f
7:36 11 15 mph 1024mb 52f 57f
7:30 14 16 mph 1024.2mb 52f 57f
7:24 13 16 mph 1024.2mb 52f 57f
7:18 14 17 mph 1024.2mb 52f 57f
7:12 11 15 mph 1024.2mb 52f 57f
7:06 13 18 mph 1024.2mb 52f 57f
7:00 15 17 mph 1024.3mb 52f 56f
6:54 14 16 mph 1024.3mb 52f 57f
6:48 15 17 mph 1024.3mb 52f 57f
6:36  -  mph 1024.4mb 52f 58f
6:30  -  mph 1024.4mb 52f 57f
6:24  -  mph 1024.5mb 52f 58f
6:18  -  mph 1024.6mb 52f 59f
6:12  -  mph 1024.5mb 52f 58f
6:06  -  mph 1024.6mb 53f 58f
6:00  -  mph 1024.7mb 53f 58f
5:54  -  mph 1024.7mb 53f 58f
5:48  -  mph 1024.8mb 53f 58f
5:36 17 23 mph 1024.8mb 53f 58f
5:30 16 22 mph 1024.8mb 53f 58f
5:24 16 22 mph 1024.9mb 53f 58f
5:18 15 17 mph 1024.9mb 53f 58f
5:12 16 22 mph 1025mb 53f 57f
5:06 16 20 mph 1024.9mb 53f 57f
5:00 16 21 mph 1024.9mb 53f 57f
4:54 15 22 mph 1024.9mb 53f 57f
4:48 15 21 mph 1024.9mb 53f 58f
4:36  -  mph 1025mb - 57f
4:30  -  mph 1025mb - 57f
4:24  -  mph 1025mb - 57f
4:18  -  mph 1025mb - 57f
4:12  -  mph 1025mb - 57f
4:06  -  mph 1025.1mb - 57f
4:00  -  mph 1025.1mb - 57f
3:54  -  mph 1025.1mb - 57f
3:48  -  mph 1025.2mb - 58f
3:36 14 17 mph 1025.3mb 53f 57f
3:30 13 16 mph 1025.3mb 53f 57f
3:24 14 17 mph 1025.4mb 53f 57f
3:18 14 16 mph 1025.4mb 52f 57f
3:12 10 17 mph 1025.4mb 52f 57f
3:06 13 17 mph 1025.5mb 52f 57f
3:00 15 17 mph 1025.5mb 52f 57f
2:54 15 18 mph 1025.5mb 52f 57f
2:48 14 16 mph 1025.5mb 52f 57f
2:36 13 17 mph 1025.6mb 52f 57f
2:30 14 18 mph 1025.6mb 52f 57f
2:24 14 18 mph 1025.6mb 52f 57f
2:18 14 17 mph 1025.6mb 52f 57f
2:12 14 17 mph 1025.7mb 52f 57f
2:06 15 20 mph 1025.7mb 52f 57f
2:00 15 17 mph 1025.7mb 52f 57f
1:54 15 18 mph 1025.6mb 52f 57f
1:48 13 16 mph 1025.6mb 52f 57f
1:36 13 16 mph 1025.7mb 52f 56f
1:30 14 17 mph 1025.7mb 52f 56f
1:24 14 16 mph 1025.7mb 52f 56f
1:18 15 21 mph 1025.7mb 52f 56f
1:12 15 20 mph 1025.7mb 52f 56f
1:06 13 16 mph 1025.7mb 52f 56f
1:00 13 16 mph 1025.7mb 52f 56f
12:54 11 14 mph 1025.7mb 52f 56f